sat.trackr.live / text

‹ back to catalog

STARLINK-4178

NORAD 53277 · 2022-086AM

PAYLOAD ACTIVE UNKNOWN

§ Identity

Operator
Country
US
Launch date
2022-07-24
Launch site
AFETR
Launch vehicle
Mass (kg)
RCS (m²)

Purposes: comms

External: N2YO · Heavens-Above · Gunter

§ Orbital elements

Epoch: 2026-05-25T03:01:12.619200Z

Period
95.44 min
Inclination
53.2118°
Eccentricity
0.0001204
Mean motion
15.08839185 rev/d
Perigee alt
538.9 km
Apogee alt
540.6 km
Semi-major
6,917.9 km
B*
-6.2613e-5
RAAN
201.0127°
Arg perigee
83.4161°
Mean anomaly
276.6968°
Rev number
21,273

§ Raw data

STARLINK-41781 53277U 22086AM  26145.12584050 -.00001284  00000+0 -62613-4 0  99932 53277  53.2118 201.0127 0001204  83.4161 276.6968 15.08839185212736

JSON: /api/v1/satellites/53277 · /tle

For live sub-satellite position, see the globe view (requires WebGL).

§ Visibility from observer

Set your observer location to see the next 7 days of passes ≥ 10°. The values pass through the URL so the page stays shareable.

No JS? Fill the form by hand. The geolocation button needs JavaScript.